Weather History for KSNL - February, 2012

Change the Weather History Date:

Friday, February 24, 2012

  Actual Average (KTIK) Record (KTIK)
Temperature  
Mean Temperature 43 °F -  
Max Temperature 53 °F 52 °F 73 °F (1998)
Min Temperature 33 °F 32 °F 8 °F (2003)
Degree Days  
Heating Degree Days 22    
Moisture  
Dew Point 24 °F    
Average Humidity 44    
Maximum Humidity 70    
Minimum Humidity 30    
Precipitation  
Precipitation 0.00 in - - ()
Sea Level Pressure  
Sea Level Pressure 30.20 in    
Wind  
Wind Speed 12 mph (NW)    
Max Wind Speed 20 mph    
Max Gust Speed 28 mph    
Visibility 10 miles    
Events      
Averages and records for this station are not official NWS values.
T = Trace of Precipitation, MM = Missing Value Source: NWS Daily Summary

Daily Weather History Graph

Daily Weather History Graph

Search for Another Location

Airport or City:

Trip Planner

Search our weather history database for the weather conditions in past years. The results will help you decide how hot, cold, wet, or windy it might be!

Date:

Astronomy

Feb. 24, 2012 Rise Set
Actual Time 7:04 AM CST 6:18 PM CST
Civil Twilight 6:38 AM CST 6:43 PM CST
Nautical Twilight 6:09 AM CST 7:13 PM CST
Astronomical Twilight 5:39 AM CST 7:42 PM CST
Moon 8:07 AM CST (2/24) 9:13 PM CST (2/24)
Length of Visible Light 12h 05m
Length of Day
11h 13m
Waxing Crescent, 8% of the Moon is Illuminated
Feb 24
Waxing Crescent
Feb 29
First Quarter
Mar 8
Full
Mar 14
Last Quarter
Mar 22
New

Hourly Weather History & Observations

Time (CST) Temp. Windchill Dew Point Humidity Pressure Visibility Wind Dir Wind Speed Gust Speed Precip Events Conditions
12:15 AM 46.4 °F 39.8 °F 24.8 °F 43% 29.97 in 10.0 mi North 16.1 mph 25.3 mph N/A   Scattered Clouds
12:35 AM 46.4 °F 39.8 °F 26.6 °F 46% 29.99 in 10.0 mi North 16.1 mph 21.9 mph N/A   Scattered Clouds
12:55 AM 46.4 °F 39.0 °F 23.0 °F 40% - 10.0 mi North 19.6 mph 27.6 mph N/A   Clear
1:15 AM 44.6 °F 36.6 °F 23.0 °F 43% 30.02 in 10.0 mi North 19.6 mph 25.3 mph N/A   Clear
1:35 AM 42.8 °F 36.2 °F 21.2 °F 42% 30.02 in 10.0 mi North 12.7 mph 18.4 mph N/A   Clear
1:55 AM 42.8 °F 36.6 °F 23.0 °F 46% 30.04 in 10.0 mi North 11.5 mph 20.7 mph N/A   Clear
2:15 AM 42.8 °F 37.0 °F 21.2 °F 42% 30.06 in 10.0 mi NNW 10.4 mph - N/A   Clear
2:35 AM 41.0 °F 35.2 °F 23.0 °F 49% 30.06 in 10.0 mi NNW 9.2 mph - N/A   Clear
2:55 AM 41.0 °F 35.2 °F 23.0 °F 49% 30.06 in 10.0 mi NNW 9.2 mph - N/A   Clear
3:15 AM 41.0 °F 34.7 °F 23.0 °F 49% 30.07 in 10.0 mi NW 10.4 mph - N/A   Clear
3:35 AM 39.2 °F 31.2 °F 23.0 °F 52% 30.07 in 10.0 mi NNW 13.8 mph - N/A   Clear
3:55 AM 39.2 °F 32.0 °F 23.0 °F 52% 30.08 in 10.0 mi NNW 11.5 mph - N/A   Clear
4:15 AM 37.4 °F 29.8 °F 23.0 °F 56% 30.09 in 10.0 mi NNW 11.5 mph - N/A   Clear
4:35 AM 37.4 °F 29.8 °F 23.0 °F 56% 30.09 in 10.0 mi NNW 11.5 mph - N/A   Clear
4:55 AM 37.4 °F 28.2 °F 23.0 °F 56% 30.10 in 10.0 mi NNW 16.1 mph 21.9 mph N/A   Clear
5:15 AM 37.4 °F 27.8 °F 24.8 °F 60% 30.11 in 10.0 mi NNW 17.3 mph - N/A   Clear
5:35 AM 37.4 °F 28.5 °F 23.0 °F 56% 30.13 in 10.0 mi NNW 15.0 mph - N/A   Clear
6:15 AM 35.6 °F 27.5 °F 24.8 °F 65% 30.16 in 10.0 mi NNW 11.5 mph - N/A   Clear
6:35 AM 35.6 °F 28.0 °F 24.8 °F 65% 30.17 in 10.0 mi NNW 10.4 mph - N/A   Clear
6:55 AM 35.6 °F 28.0 °F 24.8 °F 65% 30.18 in 10.0 mi NNW 10.4 mph - N/A   Clear
7:15 AM 33.8 °F 27.0 °F 24.8 °F 70% 30.19 in 10.0 mi NNW 8.1 mph - N/A   Clear
7:35 AM 33.8 °F 27.7 °F 24.8 °F 70% 30.20 in 10.0 mi NNW 6.9 mph - N/A   Clear
7:55 AM 35.6 °F 29.9 °F 26.6 °F 70% 30.22 in 10.0 mi NNW 6.9 mph - N/A   Clear
8:15 AM 37.4 °F 30.3 °F 26.6 °F 65% 30.23 in 10.0 mi NNW 10.4 mph - N/A   Clear
8:55 AM 41.0 °F 34.3 °F 26.6 °F 57% 30.25 in 10.0 mi NNW 11.5 mph - N/A   Clear
9:15 AM 41.0 °F 33.5 °F 24.8 °F 53% 30.26 in 10.0 mi NNW 13.8 mph - N/A   Clear
9:35 AM 42.8 °F 36.6 °F 24.8 °F 49% 30.26 in 10.0 mi NNW 11.5 mph - N/A   Clear
9:55 AM 44.6 °F 38.1 °F 23.0 °F 43% 30.27 in 10.0 mi NNW 13.8 mph - N/A   Clear
10:15 AM 44.6 °F 40.2 °F 24.8 °F 46% 30.27 in 10.0 mi NW 8.1 mph 16.1 mph N/A   Clear
10:35 AM 46.4 °F 43.5 °F 23.0 °F 40% 30.27 in 10.0 mi North 5.8 mph - N/A   Clear
10:55 AM 50.0 °F - 24.8 °F 37% 30.27 in 10.0 mi NNW 8.1 mph - N/A   Clear
11:15 AM 50.0 °F - 23.0 °F 35% 30.28 in 10.0 mi Calm Calm - N/A   Clear
11:35 AM 50.0 °F - 23.0 °F 35% 30.28 in 10.0 mi WSW 4.6 mph - N/A   Clear
11:55 AM 50.0 °F - 23.0 °F 35% 30.28 in 10.0 mi WNW 8.1 mph - N/A   Scattered Clouds
12:15 PM 50.0 °F - 23.0 °F 35% 30.28 in 10.0 mi Calm Calm - N/A   Scattered Clouds
12:35 PM 50.0 °F - 23.0 °F 35% 30.28 in 10.0 mi WSW 10.4 mph 18.4 mph N/A   Mostly Cloudy
12:55 PM 51.8 °F - 23.0 °F 33% 30.29 in 10.0 mi NW 11.5 mph 18.4 mph N/A   Mostly Cloudy
1:15 PM 51.8 °F - 23.0 °F 33% 30.28 in 10.0 mi NNW 10.4 mph - N/A   Scattered Clouds
1:35 PM 51.8 °F - 23.0 °F 33% 30.27 in 10.0 mi NNW 12.7 mph 19.6 mph N/A   Scattered Clouds
1:55 PM 51.8 °F - 23.0 °F 33% 30.27 in 10.0 mi WNW 9.2 mph 24.2 mph N/A   Scattered Clouds
2:15 PM 53.6 °F - 26.6 °F 35% 30.27 in 10.0 mi WNW 19.6 mph 23.0 mph N/A   Scattered Clouds
2:35 PM 51.8 °F - 23.0 °F 33% 30.27 in 10.0 mi WNW 13.8 mph 19.6 mph N/A   Clear
2:55 PM 53.6 °F - 23.0 °F 30% 30.26 in 10.0 mi West 13.8 mph 20.7 mph N/A   Scattered Clouds
3:15 PM 53.6 °F - 23.0 °F 30% 30.26 in 10.0 mi WNW 13.8 mph 20.7 mph N/A   Scattered Clouds
3:35 PM 53.6 °F - 23.0 °F 30% 30.26 in 10.0 mi WNW 16.1 mph 20.7 mph N/A   Clear
4:15 PM 53.6 °F - 23.0 °F 30% 30.26 in 10.0 mi NNW 10.4 mph - N/A   Clear
4:35 PM 53.6 °F - 23.0 °F 30% 30.26 in 10.0 mi NW 11.5 mph 19.6 mph N/A   Clear
4:55 PM 53.6 °F - 23.0 °F 30% 30.26 in 10.0 mi WNW 12.7 mph - N/A   Clear
5:15 PM 53.6 °F - 23.0 °F 30% 30.26 in 10.0 mi WNW 11.5 mph - N/A   Clear
5:35 PM 51.8 °F - 21.2 °F 30% 30.26 in 10.0 mi NW 9.2 mph - N/A   Clear
5:55 PM 51.8 °F - 23.0 °F 33% 30.27 in 10.0 mi WNW 8.1 mph - N/A   Clear
6:15 PM 50.0 °F - 23.0 °F 35% 30.27 in 10.0 mi WNW 5.8 mph - N/A   Clear
6:35 PM 50.0 °F - 23.0 °F 35% 30.27 in 10.0 mi WNW 3.5 mph - N/A   Clear
6:55 PM 50.0 °F - 24.8 °F 37% 30.28 in 10.0 mi Calm Calm - N/A   Clear
7:15 PM 46.4 °F - 23.0 °F 40% 30.28 in 10.0 mi Calm Calm - N/A   Clear
7:55 PM 46.4 °F - 23.0 °F 40% 30.28 in 10.0 mi Calm Calm - N/A   Clear
8:15 PM 44.6 °F - 23.0 °F 43% 30.28 in 10.0 mi Calm Calm - N/A   Clear
8:35 PM 41.0 °F 38.0 °F 24.8 °F 53% 30.29 in 10.0 mi SSW 4.6 mph - N/A   Clear
8:55 PM 42.8 °F 39.3 °F 23.0 °F 46% 30.29 in 10.0 mi SSW 5.8 mph - N/A   Clear
9:15 PM 41.0 °F 37.1 °F 24.8 °F 53% 30.29 in 10.0 mi SSW 5.8 mph - N/A   Clear
9:35 PM 39.2 °F 35.9 °F 26.6 °F 61% 30.30 in 10.0 mi SSW 4.6 mph - N/A   Clear
9:55 PM 39.2 °F 37.0 °F 26.6 °F 61% 30.30 in 10.0 mi SSW 3.5 mph - N/A   Clear
10:15 PM 37.4 °F 33.8 °F 26.6 °F 65% 30.31 in 10.0 mi SW 4.6 mph - N/A   Clear
10:35 PM 37.4 °F 32.8 °F 26.6 °F 65% 30.31 in 10.0 mi SSW 5.8 mph - N/A   Clear
11:15 PM 41.0 °F 39.0 °F 23.0 °F 49% 30.31 in 10.0 mi SSW 3.5 mph - N/A   Clear
11:35 PM 37.4 °F 32.8 °F 24.8 °F 60% 30.32 in 10.0 mi WNW 5.8 mph - N/A   Clear
11:55 PM 39.2 °F - 23.0 °F 52% 30.31 in 10.0 mi Calm Calm - N/A   Clear